sat.trackr.live / text

‹ back to catalog

STARLINK-4427

NORAD 53210 · 2022-084X

PAYLOAD ACTIVE UNKNOWN

§ Identity

Operator
Country
US
Launch date
2022-07-22
Launch site
AFWTR
Launch vehicle
Mass (kg)
RCS (m²)

Purposes: comms

External: N2YO · Heavens-Above · Gunter

§ Orbital elements

Epoch: 2026-09-20T00:06:35.248896Z

Period
93.91 min
Inclination
97.2840°
Eccentricity
0.0001200
Mean motion
15.33438307 rev/d
Perigee alt
464.7 km
Apogee alt
466.4 km
Semi-major
6,843.7 km
B*
3.7834e-5
RAAN
317.8160°
Arg perigee
94.0716°
Mean anomaly
266.0664°
Rev number
22,915

§ Raw data

STARLINK-44271 53210U 22084X   26263.00457464  .00001146  00000+0  37834-4 0  99962 53210  97.2840 317.8160 0001200  94.0716 266.0664 15.33438307229155

JSON: /api/v1/satellites/53210 · /tle

For live sub-satellite position, see the globe view (requires WebGL).

§ Visibility from observer

Set your observer location to see the next 7 days of passes ≥ 10°. The values pass through the URL so the page stays shareable.

No JS? Fill the form by hand. The geolocation button needs JavaScript.